Tracking 28790 objects as of 19-Apr-2024
HD Live streaming from Space Station
objects crossing your sky now

THOR ABLESTAR DEB

Track THOR ABLESTAR DEB now!
10-day predictions


NORAD ID: 6747
Int'l Code: 1961-015KM
Perigee: 818.9 km
Apogee: 1,024.7 km
Inclination: 66.6 °
Period: 103.3 minutes
Semi major axis: 7292 km
RCS: 0.0083 m2 (small)
Launch date: June 29, 1961
Source: United States (US)
Launch site: AIR FORCE EASTERN TEST RANGE (AFETR)

Note: This is SATELLITE DEBRIS
Your satellite tracking list
Your tracking list is empty




NASA's NSSDC Master Catalog

Two Line Element Set (TLE):
1  6747U 61015KM  24110.50738063  .00000900  00000-0  68111-3 0  9996
2  6747  66.5996 300.8873 0141120   7.5580 352.7579 13.93992842181794
Source of the keplerian elements: AFSPC